Regional Weather Roundup
Issued by NWS

Home | Current Version | Previous Version | Graphics & Text | Print | Product List | Glossary On
Versions: 1 2 3 4 5 6 7 8 9 10 11 12 13 14 15 16 17 18 19 20 21 22 23 24 25 26 27 28 29 30 31 32 33 34 35 36 37 38 39 40 41 42 43 44 45 46 47 48 49 50
000
ASUS43 KMPX 240601
RWRMN
WEATHER ROUNDUP FOR MINNESOTA
NATIONAL WEATHER SERVICE TWIN CITIES/CHANHASSEN MN
100 AM CDT SUN MAY 24 2015


NOTE: "FAIR" INDICATES FEW OR NO CLOUDS BELOW 12,000 FEET WITH NO
SIGNIFICANT WEATHER AND/OR OBSTRUCTIONS TO VISIBILITY. N/A MEANS
CURRENT SKY AND/OR WEATHER CONDITIONS ARE NOT AVAILABLE.

MNZ060>063-068>070-240700-
   Twin Cities Metro

CITY           SKY/WX    TMP DP  RH WIND       PRES   REMARKS
TWIN CITIES    CLOUDY    62  47  57 E8        30.11F
6HR MIN TEMP:  62; 6HR MAX TEMP:  68; 6HR PCP: TRACE;

ST PAUL        CLOUDY    63  46  54 E6        30.12F
CRYSTAL        CLOUDY    62  49  62 NE3       30.11F
BLAINE         CLOUDY    61  54  77 CALM      30.13F
LAKEVILLE      CLOUDY    59  46  63 NE3       30.11F
EDEN PRAIRIE   CLOUDY    60  47  61 E6        30.10F
6HR MIN TEMP:  60; 6HR MAX TEMP:  67;

SOUTH ST PAUL  CLOUDY    63  45  52 E5        30.11F
LAKE ELMO      CLOUDY    59  50  72 W3        30.15S
$$
MNZ001>005-007-008-013>017-022>024-027-028-240700-
   Northwest Minnesota

CITY           SKY/WX    TMP DP  RH WIND       PRES   REMARKS
BEMIDJI        PTCLDY    50  42  75 CALM      30.13F
HALLOCK        PTCLDY    55  45  67 SW7       30.09S
ROSEAU         PTCLDY    57  46  67 SW7       30.10S
WARROAD        CLEAR     61  46  59 SW7       30.10S
THIEF RVR FALL PTCLDY    57  43  58 CALM      30.12S
CROOKSTON      MOCLDY    55  45  67 SE5       30.11S
FOSSTON        MOCLDY    54  45  71 CALM      30.13S
DETROIT LAKES  PTCLDY    54  46  76 NE3       30.13F
MOORHEAD       PTCLDY    55  46  71 CALM      30.11S
PARK RAPIDS    MOCLDY    55  44  66 CALM      30.12F
MAHNOMEN       FAIR      56  45  65 SE5       30.11F
$$
MNZ006-009>011-018-025>026-240700-
   North Central Minnesota

CITY           SKY/WX    TMP DP  RH WIND       PRES   REMARKS
BAUDETTE       CLEAR     54  42  64 S7        30.10S
FLAG ISLAND    CLEAR     63  43  48 SW15      30.05F
INTL FALLS     CLEAR     54  42  64 SW6       30.11R
6HR MIN TEMP:  50; 6HR MAX TEMP:  77;

WASKISH        CLEAR     57  46  67 CALM      30.12F
BIG FORK       PTCLDY    50  43  76 CALM      30.14F
LONGVILLE      MOCLDY    46  46 100 CALM      30.14S
GRAND RAPIDS   PTCLDY    48  41  76 CALM      30.14F
CRANE LAKE     CLEAR     55  43  62 CALM      30.13F
COOK           CLEAR     55  45  67 CALM      30.14F
WALKER         FAIR      48  43  82 CALM      30.13F
$$
MNZ012-019>021-037-240700-
   Northeast Minnesota

CITY           SKY/WX    TMP DP  RH WIND       PRES   REMARKS
DULUTH         CLEAR     55  42  61 CALM      30.14F
6HR MIN TEMP:  55; 6HR MAX TEMP:  71;

ELY            CLEAR     55  43  62 SW3       30.14F
HIBBING        CLEAR     44  40  85 CALM      30.14F
EVELETH        CLEAR     48  45  87 CALM      30.16F
DULUTH HARBOR  PTCLDY    61  46  59 S5        30.14F
TWO HARBORS    CLEAR     61  46  59 NW3       30.13F
GRAND MARAIS     N/A     42  38  85 SW6       30.10S
G MARAIS ARPRT CLEAR     57  39  51 W6        30.14S
$$
MNZ029>031-032-039>041-046>048-054>057-064-240700-
   West Central Minnesota

CITY           SKY/WX    TMP DP  RH WIND       PRES   REMARKS
FERGUS FALLS   CLOUDY    63  46  55 SE10      30.11F
WHEATON        MOCLDY    57  46  67 E7        30.12R
MORRIS         MOCLDY    59  46  63 E9        30.08F
ALEXANDRIA     MOCLDY    60  46  59 E9        30.13F
ELBOW LAKE     CLOUDY    61  48  61 E8        30.11S
WADENA         CLOUDY    57  48  72 CALM      30.13S
GLENWOOD       MOCLDY    57  48  72 E8        30.12F
APPLETON       MOCLDY    59  46  63 E9        30.07F
BENSON         MOCLDY    57  46  67 SE5       30.09F
ORTONVILLE     MOCLDY    61  46  59 E10       30.08F
MADISON        MOCLDY    57  46  67 E7        30.07F
WILLMAR        CLOUDY    61  48  63 E8        30.12S
$$
MNZ033>034-036-042>043-049>051-058-059-240700-
   Central Minnesota

CITY           SKY/WX    TMP DP  RH WIND       PRES   REMARKS
ST CLOUD       CLOUDY    59  47  64 E3        30.12F
6HR MIN TEMP:  59; 6HR MAX TEMP:  66; 6HR PCP: TRACE;

SAUK CENTRE    MOCLDY    58  47  66 E6        30.13S
PAYNESVILLE    CLOUDY    57  47  68 CALM      30.12F
AITKIN         MOCLDY    50  45  81 CALM      30.13F
PINE RIVER     MOCLDY    50  45  81 CALM      30.17S
BRAINERD       CLOUDY    57  48  72 CALM      30.14F
STAPLES        MOCLDY    57  46  67 CALM      30.14R
LONG PRAIRIE   CLOUDY    59  46  63 E5        30.14S
LITTLE FALLS   CLOUDY    59  45  58 CALM      30.14S
LITCHFIELD     MOCLDY    61  50  67 E8        30.11F
BUFFALO        CLOUDY    58  49  72 E3        30.13S
MAPLE LAKE     CLOUDY    60  52  74 E5        30.13F
$$
MNZ037-044-045-052-053-240700-
   East Central Minnesota

CITY           SKY/WX    TMP DP  RH WIND       PRES   REMARKS
PRINCETON      CLOUDY    63  48  59 E5        30.13F
MORA           CLOUDY    55  46  71 CALM      30.16F
CAMBRIDGE      CLOUDY    63  48  59 CALM      30.12F
RUSH CITY      CLOUDY    57  49  73 CALM      30.15S
MOOSE LAKE     MOCLDY    46  45  93 CALM      30.13F
HINCKLEY       CLOUDY    55  52  88 CALM      30.15F
CLOQUET        PTCLDY    50  43  76 CALM      30.14F
MCGREGOR       MOCLDY    52  45  76 CALM      30.15F
$$
MNZ071>073-080-081-089-090-097-098-240700-
   Southwest Minnesota

CITY           SKY/WX    TMP DP  RH WIND       PRES   REMARKS
MONTEVIDEO     CLOUDY    59  50  72 SE8       30.09F
GRANITE FALLS  MOCLDY    60  49  65 E6        30.09F
CANBY          MOCLDY    57  49  74 CALM      30.07F
MARSHALL       CLOUDY    61  48  63 E7        30.06F
REDWOOD FALLS  CLOUDY    62  49  62 E7        30.08F
OLIVIA         CLOUDY    57  45  62 E8        30.09S
PIPESTONE      CLOUDY    61  54  77 SE3       30.07F
WINDOM         CLOUDY    61  52  72 CALM      30.09S
WORTHINGTON    CLOUDY    61  50  67 CALM      30.09R
JACKSON        CLOUDY    63  54  72 E7        30.09F
TRACY          CLOUDY    61  51  69 SE6       30.08S
SLAYTON        CLOUDY    59  53  79 CALM      30.09S
$$
MNZ065>067-074>077-082>085-091>093-240700-
   South Central Minnesota

CITY           SKY/WX    TMP DP  RH WIND       PRES   REMARKS
MANKATO        CLOUDY    63  52  67 NE8       30.10F
NEW ULM        CLOUDY    63  52  67 E6        30.09S
ST JAMES       CLOUDY    64  54  68 E5        30.09F
FAIRMONT       CLOUDY    63  48  59 E8        30.09S
GLENCOE        CLOUDY    61  51  69 CALM      30.10F
FARIBAULT      CLOUDY    61  52  72 NE5       30.11F
OWATONNA       CLOUDY    63  54  72 SE6       30.11F
WASECA         CLOUDY    61  54  77 NE7       30.11F
ALBERT LEA     CLOUDY    63  54  72 CALM      30.10F
$$
MNZ078>079-086>088-094>096-240700-
   Southeast Minnesota

CITY           SKY/WX    TMP DP  RH WIND       PRES   REMARKS
ROCHESTER      CLOUDY    61  48  62 SE6       30.13F
6HR MIN TEMP:  60; 6HR MAX TEMP:  72;

RED WING       CLOUDY    63  45  51 E5        30.11F
STANTON        CLOUDY    62  49  63 NE3       30.10F
DODGE CENTER   CLOUDY    64  48  55 E6        30.12S
WINONA         CLOUDY    59  54  82 CALM      30.13F
AUSTIN         CLOUDY    64  48  55 SE3       30.11S
PRESTON        CLOUDY    62  49  62 SE5       30.14S
$$
ABBREVIATIONS USED IN REMARKS
   TC - TEMPERATURES IN CELSIUS
  WCI - WIND CHILL INDEX
   HX - HEAT INDEX
  VSB - VISIBILITY
$$



USA.gov is the U.S. government's official web portal to all federal, state and local government web resources and services.